www.pogodaiklimat.ru

Погода и климат >> Архив погоды >> Великобритания >> Портгленон


ПОГОДА в Портгленоне

  • Прогноз погоды в Портгленоне
  • Монитор погоды в Портгленоне

АРХИВ ПОГОДЫ в Портгленоне

Время (UTC), дата Ветер
(напр.,м/с)
 
Видим.   Явления Облачность Т
(С)
Тd
(С)
f
(%)
Тe
(С)
Тes
(С)
Комфортность P
(гПа)
Po
(гПа)
Тmin
(С)
Tmax
(С)
R
(мм)
R24
(мм)
S
(см)
13 12.08 ЮЗ 2 30 км ливневой дождь н/о +14.0 +9.3 73 +14 +14 1012.9 1005.2
14 12.08 З 7 50 км в посл. час дождь н/о +14.0 +7.9 67 +12 +12 1013.1 1005.4
15 12.08 З 2 35 км в посл. час дождь н/о +14.5 +8.2 66 +15 +15 1013.1 1005.4
16 12.08 З 4 30 км слаб. ливневой дождь н/о +14.7 +9.8 72 +14 +14 1013.2 1005.6
17 12.08 З 3 40 км в посл. час дождь н/о +14.7 +9.4 71 +14 +14 1013.4 1005.7
18 12.08 З 2 45 км в посл. час дождь н/о +14.4 +9.8 74 +14 +14 1013.5 1005.8 +17.1 0.4
19 12.08 З 2 35 км в посл. час дождь н/о +12.8 +10.4 85 +12 +12 1014.0 1006.3
20 12.08 З 2 50 км н/о +11.6 +10.0 90 +11 +11 1014.4 1006.7
21 12.08 ЮВ 2 27 км н/о +10.0 +9.1 94 +9 +9 1014.8 1007.0
22 12.08 ЮВ 1 21 км н/о +9.2 +8.8 97 +8 +8 1014.9 1007.1
23 12.08 Ю 1 23 км н/о +8.7 +8.0 95 +8 +8 1015.1 1007.2
00 13.08 ЮВ 1 24 км н/о +8.8 +8.4 97 +8 +8 1015.1 1007.3 0.2
01 13.08 В 1 23 км н/о +8.2 +7.7 97 +8 +8 1015.0 1007.2
02 13.08 ЮВ 2 30 км н/о +7.6 +7.4 99 +6 +6 1015.2 1007.3
03 13.08 Ю 1 35 км н/о +7.7 +7.4 98 +7 +7 1015.1 1007.3
04 13.08 В 1 22 км н/о +7.5 +7.2 98 +6 +6 1014.8 1007.0
05 13.08 ЮВ 2 21 км н/о +6.9 +6.6 98 +4 +4 1015.1 1007.2
06 13.08 ЮВ 3 28 км н/о +7.7 +7.5 99 +5 +5 1015.2 1007.3 +6.7 0.2
07 13.08 ЮВ 1 45 км н/о +9.6 +8.7 94 +10 +10 1015.4 1007.6
08 13.08 Ю 2 29 км н/о +11.3 +10.0 92 +10 +10 1015.3 1007.5
09 13.08 З 2 19 км н/о +14.1 +10.8 81 +14 +14 1015.3 1007.6
10 13.08 ЮЗ 3 35 км н/о +13.7 +10.1 79 +13 +13 1015.2 1007.5
11 13.08 З 3 45 км н/о +14.2 +8.5 69 +13 +13 1014.8 1007.1
12 13.08 З 3 45 км н/о +15.4 +7.9 61 +15 +15 1014.8 1007.1
13 13.08 Ю 3 30 км н/о +16.2 +10.9 71 +16 +16 1014.6 1006.9
14 13.08 Ю 3 21 км н/о +16.2 +9.2 63 +16 +16 1014.5 1006.8
15 13.08 ЮЗ 2 40 км в посл. час дождь н/о +15.6 +9.7 68 +16 +16 1014.4 1006.8
16 13.08 З 2 50 км в посл. час дождь н/о +15.7 +10.5 71 +16 +16 1014.1 1006.5
17 13.08 СЗ 3 30 км н/о +16.6 +9.6 63 +17 +17 1013.6 1006.0
18 13.08 СВ 2 30 км н/о +15.2 +10.7 74 +15 +15 1013.6 1005.9 +17.7 0.6
19 13.08 В 2 35 км н/о +14.5 +10.4 76 +14 +14 1013.2 1005.5
20 13.08 В 2 35 км н/о +12.5 +9.5 82 +12 +12 1013.0 1005.3
21 13.08 В 4 45 км н/о +11.8 +9.4 85 +10 +10 1012.5 1004.7
22 13.08 В 4 30 км н/о +12.0 +9.4 84 +10 +10 1012.0 1004.3
23 13.08 ЮВ 3 29 км н/о +12.5 +10.4 87 +11 +11 1011.7 1004.0
00 14.08 ЮВ 3 24 км н/о +12.6 +11.3 92 +11 +11 1011.2 1003.5
01 14.08 ЮВ 3 26 км слаб. ливневой дождь н/о +12.8 +11.4 91 +11 +11 1010.6 1002.9
02 14.08 ЮВ 4 20 км слаб. дождь н/о +12.8 +11.8 94 +11 +11 1010.0 1002.3
03 14.08 ЮВ 3 17 км слаб. дождь н/о +12.9 +12.2 96 +11 +11 1009.1 1001.4
04 14.08 В 4 18 км в посл. час дождь н/о +12.7 +11.9 95 +11 +11 1008.2 1000.6
05 14.08 В 4 14 км слаб. морось с дождем н/о +12.7 +12.2 97 +11 +11 1007.6 999.9
06 14.08 В 4 9000 м слаб. дождь н/о +12.9 +12.6 98 +11 +11 1007.1 999.4 +11.7 0.8
07 14.08 В 4 11 км в посл. час дождь н/о +13.3 +13.0 98 +11 +11 1006.3 998.6
08 14.08 В 3 14 км ливневой дождь н/о +13.9 +13.5 97 +13 +13 1006.0 998.4
09 14.08 ЮВ 3 15 км слаб. морось н/о +14.9 +14.4 97 +14 +14 1005.2 997.6
10 14.08 ЮВ 4 30 км в посл. час дождь н/о +15.8 +14.8 94 +15 +15 1004.8 997.2
11 14.08 ЮВ 4 9000 м дымка н/о +16.0 +15.1 94 +15 +15 1004.3 996.7
12 14.08 Ю 4 40 км н/о +17.0 +15.2 89 +16 +16 1003.8 996.2 0.8
13 14.08 Ю 2 30 км в посл. час дождь н/о +17.4 +16.0 91 +18 +18 1003.3 995.8
14 14.08 Ю 3 40 км слаб. морось с дождем н/о +17.1 +15.6 91 +17 +17 1002.8 995.3
15 14.08 Ю 4 50 км в посл. час дождь н/о +19.0 +16.3 84 +20 +20 1002.0 994.5
16 14.08 Ю 4 11 км ливневой дождь н/о +17.5 +15.6 89 +17 +17 1001.5 994.0
17 14.08 Ю 3 12 км дождь н/о +17.0 +16.6 97 +17 +17 1001.2 993.7
18 14.08 З 3 35 км в посл. час дождь н/о +17.5 +14.8 84 +17 +17 1001.5 994.0 +19.5 5
19 14.08 З 2 25 км н/о +15.9 +12.8 82 +16 +16 1001.8 994.3
20 14.08 ЮЗ 3 30 км в посл. час дождь н/о +14.6 +13.4 93 +14 +14 1001.9 994.3
21 14.08 ЮЗ 3 35 км н/о +14.9 +13.2 90 +14 +14 1001.7 994.1
22 14.08 Ю 3 7000 м морось с дождем н/о +14.6 +13.6 94 +14 +14 1001.5 994.0
23 14.08 ЮЗ 3 7000 м слаб. морось с дождем н/о +14.4 +13.8 96 +14 +14 1001.5 994.0
00 15.08 З 3 18 км в посл. час дождь н/о +14.4 +13.7 96 +13 +13 1001.9 994.4 0.4
01 15.08 З 5 9000 м н/о +14.2 +13.0 92 +13 +13 1001.9 994.3
02 15.08 СЗ 8
{13}
35 км в посл. час дождь н/о +14.3 +12.5 89 +12 +12 1002.8 995.2
03 15.08 СЗ 8
{14}
23 км в посл. час дождь н/о +13.6 +11.4 87 +11 +11 1004.2 996.5
04 15.08 СЗ 7 28 км в посл. час дождь н/о +12.4 +11.5 94 +9 +9 1005.3 997.6
05 15.08 СЗ 6 25 км в посл. час дождь н/о +12.4 +10.6 89 +10 +10 1006.4 998.7
06 15.08 З 4 27 км н/о +12.3 +10.4 88 +10 +10 1007.4 999.7 +11.9 0.4
07 15.08 СЗ 7 30 км в посл. час дождь н/о +12.5 +10.2 86 +10 +10 1008.2 1000.5
08 15.08 СЗ 7 15 км в посл. час дождь н/о +13.0 +11.0 88 +10 +10 1008.9 1001.2
09 15.08 З 6 20 км слаб. ливневой дождь н/о +13.7 +10.4 80 +12 +12 1009.8 1002.2
10 15.08 СЗ 7 40 км в посл. час дождь н/о +15.7 +9.0 64 +14 +14 1010.2 1002.6
11 15.08 СЗ 6 24 км н/о +15.6 +9.4 67 +14 +14 1010.6 1003.0
12 15.08 З 5 45 км н/о +16.1 +9.3 64 +15 +15 1011.2 1003.6 0.0
13 15.08 З 3 29 км н/о +17.6 +10.0 61 +18 +18 1011.3 1003.7
14 15.08 З 3 30 км н/о +18.1 +11.9 67 +18 +18 1011.3 1003.8
15 15.08 ЮЗ 3 40 км н/о +18.6 +12.0 65 +19 +19 1011.0 1003.4
16 15.08 Ю 2 45 км н/о +17.0 +12.1 73 +17 +17 1011.0 1003.5
17 15.08 Ю 3 35 км н/о +16.9 +12.5 75 +17 +17 1010.8 1003.2
18 15.08 Ю 5 30 км н/о +16.1 +13.6 85 +15 +15 1010.6 1003.0 +18.9 0.0
19 15.08 Ю 2 45 км в посл. час дождь н/о +16.0 +14.4 90 +16 +16 1010.2 1002.6
20 15.08 ЮЗ 2 40 км в посл. час дождь н/о +15.5 +14.3 93 +15 +15 1010.0 1002.4
21 15.08 Ю 4 40 км н/о +15.7 +13.9 89 +15 +15 1009.4 1001.8
22 15.08 Ю 5 35 км н/о +15.7 +13.4 86 +14 +14 1009.0 1001.4
23 15.08 Ю 4 35 км н/о +15.3 +13.2 87 +14 +14 1008.3 1000.7
00 16.08 Ю 6 9000 м дым н/о +15.5 +13.1 86 +14 +14 1007.1 999.5 0.0
01 16.08 Ю 5 30 км н/о +15.5 +13.1 86 +14 +14 1006.2 998.6
02 16.08 Ю 5 19 км н/о +15.5 +13.1 86 +14 +14 1004.8 997.3
03 16.08 Ю 6 11 км дождь н/о +14.2 +13.5 96 +12 +12 1003.8 996.2
04 16.08 Ю 7 14 км слаб. дождь н/о +14.0 +13.4 96 +12 +12 1002.3 994.7
05 16.08 Ю 8
{14}
18 км слаб. дождь н/о +14.1 +13.9 99 +11 +11 1000.7 993.1
06 16.08 Ю 9-14
{14}
7000 м дождь н/о +14.3 +14.0 98 +12 +12 999.2 991.6 +13.9 4
07 16.08 Ю 9
{14}
5000 м слаб. дождь н/о +14.1 +13.8 98 +11 +11 998.0 990.4
08 16.08 Ю 6
{14}
9000 м слаб. дождь н/о +14.2 +14.1 99 +12 +12 997.6 990.0
09 16.08 Ю 6 13 км в посл. час дождь н/о +15.1 +14.9 99 +13 +13 996.7 989.2
10 16.08 Ю 7 35 км н/о +16.4 +16.0 97 +15 +15 996.0 988.5
11 16.08 Ю 7 50 км н/о +18.1 +15.6 85 +17 +17 995.7 988.3
12 16.08 ЮЗ 5 35 км н/о +19.7 +14.5 72 +21 +21 комфорт 995.5 988.1 2
13 16.08 ЮЗ 6 35 км н/о +19.4 +13.2 67 +20 +20 995.1 987.7
14 16.08 Ю 5 7000 м н/о +18.7 +13.7 73 +19 +19 994.8 987.4
15 16.08 Ю 6 29 км в посл. час дождь н/о +19.8 +15.0 74 +22 +22 комфорт 994.1 986.7
16 16.08 ЮЗ 6 26 км н/о +20.4 +13.2 63 +22 +22 комфорт 993.5 986.2
17 16.08 ЮЗ 4 35 км н/о +19.1 +12.8 67 +20 +20 993.2 985.8
18 16.08 ЮЗ 4 29 км н/о +18.5 +12.2 67 +19 +19 993.0 985.5 +21.1 2
19 16.08 ЮЗ 2 19 км в посл. час дождь н/о +16.2 +13.3 83 +17 +17 992.8 985.4
20 16.08 Ю 4 24 км н/о +16.1 +12.7 80 +15 +15 992.8 985.4
21 16.08 ЮЗ 4 50 км н/о +14.6 +11.6 82 +13 +13 993.2 985.7
22 16.08 Ю 3 30 км н/о +13.7 +11.9 89 +12 +12 993.0 985.4
23 16.08 Ю 4 21 км н/о +13.7 +12.4 92 +12 +12 993.0 985.5
00 17.08 Ю 4 9000 м дым н/о +13.6 +12.7 94 +12 +12 993.0 985.4 0.0
01 17.08 ЮЗ 3 25 км в посл. час дождь н/о +13.1 +11.9 92 +12 +12 993.6 986.1
02 17.08 ЮЗ 3 23 км н/о +13.0 +11.4 90 +12 +12 994.2 986.6
03 17.08 ЮЗ 3 17 км н/о +12.0 +10.4 90 +11 +11 994.4 986.8
04 17.08 Ю 3 16 км н/о +11.4 +10.1 92 +9 +9 994.5 986.9
05 17.08 Ю 4 15 км н/о +11.0 +9.7 92 +9 +9 994.8 987.2
06 17.08 Ю 5 15 км н/о +10.9 +10.1 95 +8 +8 995.1 987.5 +10.8 0.2
07 17.08 Ю 4 14 км н/о +11.7 +10.6 93 +9 +9 995.3 987.7
08 17.08 Ю 5 18 км н/о +12.5 +10.7 89 +10 +10 995.5 987.9
09 17.08 ЮЗ 5 22 км н/о +13.8 +9.9 77 +12 +12 995.7 988.2
10 17.08 ЮЗ 5 25 км н/о +14.5 +9.6 72 +13 +13 995.6 988.0
11 17.08 ЮЗ 6 19 км н/о +15.8 +9.3 65 +15 +15 995.4 987.9
12 17.08 ЮЗ 5 30 км ливневой дождь н/о +14.2 +10.0 76 +13 +13 995.8 988.3 0.0
13 17.08 Ю 6 40 км в посл. час дождь н/о +16.8 +11.1 69 +16 +16 995.2 987.8
14 17.08 ЮЗ 6
{13}
6000 м сильн. ливневой дождь н/о +15.8 +11.1 74 +15 +15 994.9 987.4
15 17.08 ЮЗ 4 25 км в посл. час дождь н/о +15.7 +12.1 79 +15 +15 994.8 987.3
16 17.08 Ю 7 2300 м ливневой дождь н/о +14.6 +11.9 84 +13 +13 994.9 987.4
17 17.08 ЮЗ 6 30 км в посл. час дождь н/о +14.8 +10.8 77 +13 +13 994.9 987.4
18 17.08 ЮЗ 5 29 км н/о +15.6 +9.7 68 +14 +14 994.5 987.0 +17.9 2
19 17.08 Ю 6 35 км н/о +14.3 +10.5 78 +12 +12 994.4 986.8
20 17.08 Ю 4 30 км н/о +13.2 +11.1 87 +11 +11 994.5 987.0
21 17.08 Ю 6 20 км в посл. час дождь н/о +13.2 +10.3 83 +11 +11 994.7 987.2
22 17.08 Ю 6 22 км н/о +12.9 +10.7 86 +10 +10 994.4 986.9
23 17.08 Ю 8 19 км н/о +12.8 +10.5 86 +10 +10 994.2 986.6
00 18.08 Ю 7 17 км н/о +12.7 +10.5 86 +10 +10 993.9 986.4 0.0
01 18.08 Ю 6 17 км н/о +12.5 +10.5 88 +10 +10 993.7 986.1
02 18.08 Ю 6 20 км н/о +12.4 +10.5 88 +10 +10 993.3 985.7
03 18.08 Ю 6 17 км н/о +12.5 +10.6 88 +10 +10 992.8 985.2
04 18.08 Ю 6 19 км н/о +12.5 +10.6 88 +10 +10 992.5 985.0
05 18.08 Ю 5 23 км н/о +12.5 +10.8 89 +10 +10 992.5 985.0
06 18.08 Ю 4 6000 м ливневой дождь н/о +12.0 +11.4 96 +10 +10 992.7 985.1 +12.0 0.4
07 18.08 Ю 4 30 км в посл. час дождь н/о +12.4 +11.5 94 +10 +10 992.9 985.4
08 18.08 Ю 4 23 км н/о +13.3 +12.0 92 +11 +11 993.3 985.7
09 18.08 ЮЗ 4 19 км н/о +14.7 +11.9 83 +13 +13 993.8 986.3
10 18.08 ЮЗ 5 19 км в посл. час дождь н/о +14.5 +11.7 83 +13 +13 994.3 986.8
11 18.08 ЮЗ 3 30 км в посл. час дождь н/о +15.0 +11.7 81 +14 +14 995.0 987.5
12 18.08 З 5 22 км в посл. час дождь н/о +15.3 +11.3 77 +14 +14 995.4 987.9 0.2
13 18.08 З 6 26 км н/о +17.3 +10.0 62 +17 +17 995.9 988.4
14 18.08 З 6 21 км н/о +17.7 +8.8 56 +17 +17 996.6 989.2
15 18.08 З 5 25 км н/о +18.7 +9.7 56 +19 +19 997.1 989.6
16 18.08 З 5 29 км н/о +16.6 +10.5 67 +16 +16 997.9 990.4
17 18.08 З 5 30 км н/о +16.4 +11.8 74 +15 +15 998.4 990.9
18 18.08 З 3 35 км в посл. час дождь н/о +15.3 +12.4 83 +15 +15 999.0 991.5 +19.0 0.2
19 18.08 З 5 35 км в посл. час дождь н/о +14.0 +11.5 85 +12 +12 999.8 992.3
20 18.08 З 3 27 км н/о +13.4 +11.5 88 +12 +12 1000.6 993.0
21 18.08 З 3 30 км н/о +13.2 +11.0 87 +12 +12 1001.3 993.7
22 18.08 З 3 19 км в посл. час дождь н/о +12.8 +11.2 90 +11 +11 1002.0 994.4
23 18.08 З 3 15 км в посл. час дождь н/о +12.5 +11.0 91 +11 +11 1002.9 995.2
00 19.08 З 4 14 км н/о +12.5 +10.1 85 +11 +11 1003.4 995.8 0.4
01 19.08 З 3 14 км н/о +12.4 +10.4 88 +11 +11 1003.9 996.2
02 19.08 ЮЗ 3 18 км н/о +12.2 +9.9 86 +11 +11 1004.0 996.3
03 19.08 ЮЗ 3 21 км н/о +11.9 +10.1 89 +10 +10 1004.4 996.8
04 19.08 ЮЗ 3 19 км н/о +11.6 +10.0 90 +10 +10 1004.9 997.2
05 19.08 ЮЗ 2 22 км н/о +11.0 +9.7 92 +10 +10 1005.5 997.8
06 19.08 ЮЗ 3 18 км н/о +11.6 +10.3 92 +10 +10 1005.8 998.1 +10.9 0.4
07 19.08 Ю 4 30 км н/о +12.0 +10.8 92 +10 +10 1006.3 998.6
08 19.08 ЮЗ 3 30 км н/о +12.3 +10.8 91 +11 +11 1006.6 998.9
09 19.08 ЮЗ 4 40 км н/о +13.7 +10.8 83 +12 +12 1006.9 999.3
10 19.08 З 4 30 км н/о +13.9 +9.9 77 +13 +13 1007.4 999.7
11 19.08 ЮЗ 4 24 км н/о +14.9 +11.9 82 +14 +14 1007.7 1000.1

 

Местоположение метеостанции Портгленон (Великобритания): широта 54.87 долгота -6.45 высота над уровнем моря 65 м.

В архиве по умолчанию представлена погода в Портгленоне за последнюю неделю. Архивные данные за месяц целиком и за предыдущие месяцы, начиная с января 2011 года, Вы можете получить, выбрав интересующий диапазон дат из раскрывающегося списка и нажав кнопку "Ввод!".


*Определитесь, кто Вы:
робот инопланетянин человек

Внимание! Время в таблицах - всемирное. Для получения местного времени необходимо прибавить поправку, которая равна 0 ч.

Смотрите также архив погоды в соседних городах и на ближайших метеорологических станциях:

Погода в Белфасте (Великобритания) (29 км)
Погода на Озере Lough Fea (Великобритания) (29 км)
Погода в Баллипатрик Форест (Великобритания) (39 км)
Погода на Магиллигане (Великобритания) (44 км)
Погода в Гленане (Великобритания) (71 км)
Погода в Каследерге (Великобритания) (75 км)
Погода в Макрайханише (Великобритания) (78 км)
Погода в Малин Хед (Ирландия) (79 км)
Погода в Порт-Эллене (Великобритания) (91 км)
Погода в Томастауне (Великобритания) (95 км)

Пояснения к столбцам:

Ветер - указаны скорость ветра в м/с - средняя за 10 мин, порывы в срок и между сроками (в фигурных скобках) и направление, откуда дует ветер: С - северный, СВ - северо-восточный, В - восточный, ЮВ - юго-восточный, Ю - южный, ЮЗ - юго-западный, З - западный, СЗ - северо-западный.
Видимость - горизонтальная дальность видимости в метрах или километрах. При видимости от 1 до 10 км при отсутствии осадков обычно наблюдается дымка, при ухудшении видимости до 1 км и менее - туман. В сухую погоду видимость может ухудшаться дымом, пылью или мглою.
Явления - указаны атмосферные явления, наблюдавшиеся в срок или в последний час перед сроком; фигурными скобками обозначены явления, наблюдавшиеся между сроками (за 1-3 часа до срока); квадратными скобками обозначены град или гололедные отложения с указанием их диаметра в мм.
Облачность - указаны через наклонную черту общая и нижняя облачность в баллах и высота нижней границы облаков в метрах; квадратными скобками обозначены формы облаков: Ci - перистые, Cs - перисто-слоистые, Cc - перисто-кучевые, Ac - высококучевые, As - высокослоистые, Sc - слоисто-кучевые, Ns - слоисто-дождевые, Cu - кучевые, Cb - кучево-дождевые. Подробнее классификацию облаков см. в Атласе облаков (PDF).
T - Температура воздуха - температура, измеренная на высоте 2 м над землей.
Td - Температура точки росы - температура, при понижении до которой содержащийся в воздухе водяной пар достигнет насыщения.
f - Относительная влажность воздуха - влажноcть воздуха, измеренная на высоте 2 м над землей.
Te - Эффективная температура - температура, которую ощущает одетый по сезону человек в тени. Характеристика душности погоды. При расчете учитывается влияние влажности воздуха и скорости ветра на теплоощущения человека.
Tes - Эффективная температура на солнце - температура, которую ощущает человек, с поправкой на солнечный нагрев. Характеристика знойности погоды. Зависит от высоты солнца над горизонтом, облачности и скорости ветра. Ночью, в пасмурную погоду, а также при ветре 12 м/с и более поправка равна нулю.
P - Атмосферное давление - приведенное к уровню моря атмосферное давление.
Po - Атмосферное давление - измеренное на уровне метеостанции атмосферное давление.
Tmin - Минимальная температура - минимум температуры воздуха на высоте 2 м над землей.
Tmax - Максимальная температура - максимум температуры воздуха на высоте 2 м над землей.
R - Количество осадков - Количество выпавших осадков за период времени, мм. При наведении курсора мыши на число - период времени, за который выпало указанное количество осадков.
R24 - Количество осадков - Количество выпавших осадков за 24 часа, мм.
S - Снежный покров - Высота снежного покрова, см. При наведении курсора мыши на число - состояние снежного покрова и степень покрытия местности в баллах.